Simultaneous Nadir Overpasses (SNOs) Predictions

Prediction of SNOs over PacNW region [( 10.00, 139.50) to ( 22.70, 165.60)] between NOAA-19 and NPP Satellites:

Table of predicted SNOs over PacNW region for the next 30.0 days since TLE Epoch: 3/9/2014
Index Date (NOAA-19) Time (NOAA-19) NOAA-19 Lat,Lon Date (NPP) Time (NPP) NPP Lat,Lon Distance(km) Time Diff (sec)
1 03/18/2014 02:47:37 13.95, 162.74 03/18/2014 02:50:06 12.75, 157.71 560.33 149
2 03/18/2014 15:24:08 17.12, 158.61 03/18/2014 15:22:33 17.98, 154.46 450.55 95
3 03/30/2014 16:33:22 22.61, 142.39 03/30/2014 16:36:46 24.71, 137.17 581.29 204
4 03/31/2014 03:49:45 22.67, 145.82 03/31/2014 03:49:45 21.72, 141.36 471.43 0
5 03/31/2014 16:25:52 10.02, 142.13 03/31/2014 16:22:15 8.84, 138.12 459.26 217
